,,PA_Meas_PMT16A,,PR_Meas_QMR101_102,,RH_Meas_QMH101,,SR_Meas_QMS101,,TA_Meas_QMH101,,GenWind,,GenWind,
time,status,PA,status,PR,status,RH,status,SR,status,TA,status,DirAvg,status,SpdAvg,
2010-05-10, 00:00:04,VALID,914.696,VALID,0,VALID,96.1541,VALID,0,VALID,21.8274,VALID,6,VALID,1.21836,
2010-05-10, 00:01:04,VALID,914.664,VALID,0,VALID,96.177,VALID,0,VALID,21.8485,VALID,6,VALID,1.46875,
2010-05-10, 00:02:04,VALID,914.7,VALID,0,VALID,96.2228,VALID,0,VALID,21.8485,VALID,6,VALID,1.27617,
2010-05-10, 00:03:04,VALID,914.673,VALID,0,VALID,96.2456,VALID,0,VALID,21.8681,VALID,6,VALID,1.19844,
2010-05-10, 00:04:04,VALID,914.67,VALID,0,VALID,96.238,VALID,0,VALID,21.8469,VALID,6,VALID,1.5625,
2010-05-10, 00:05:04,VALID,914.682,VALID,0,VALID,96.2304,VALID,0,VALID,21.8469,VALID,6,VALID,1.11133,
2010-05-10, 00:06:04,VALID,914.664,VALID,0,VALID,96.177,VALID,0,VALID,21.8485,VALID,6,VALID,1.16719,
2010-05-10, 00:07:04,VALID,914.677,VALID,0,VALID,96.116,VALID,0,VALID,21.8079,VALID,352,VALID,1.65039,
2010-05-10, 00:08:04,VALID,914.685,VALID,0,VALID,96.0855,VALID,0,VALID,21.79,VALID,3,VALID,1.24023,
2010-05-10, 00:09:04,VALID,914.669,VALID,0,VALID,96.0779,VALID,0,VALID,21.7883,VALID,353,VALID,0.75625,
2010-05-10, 00:10:04,VALID,914.655,VALID,0,VALID,96.0322,VALID,0,VALID,21.7883,VALID,24,VALID,1.05078,
2010-05-10, 00:11:04,VALID,914.64,VALID,0,VALID,96.0627,VALID,0,VALID,21.8079,VALID,24,VALID,0.935156,
2010-05-10, 00:12:04,VALID,914.629,VALID,0,VALID,96.1236,VALID,0,VALID,21.8079,VALID,24,VALID,0.732031,
2010-05-10, 00:13:04,VALID,914.684,VALID,0,VALID,96.1313,VALID,0,VALID,21.8274,VALID,24,VALID,0.516406,
2010-05-10, 00:14:04,VALID,914.634,VALID,0,VALID,96.1008,VALID,0,VALID,21.8274,VALID,24,VALID,0.689062,
2010-05-10, 00:15:04,VALID,914.623,VALID,0,VALID,96.0779,VALID,0,VALID,21.8062,VALID,24,VALID,1.12812,
2010-05-10, 00:16:04,VALID,914.657,VALID,0,VALID,96.1008,VALID,0,VALID,21.8274,VALID,24,VALID,1.52109,
2010-05-10, 00:17:04,VALID,914.619,VALID,0,VALID,95.9941,VALID,0,VALID,21.8062,VALID,24,VALID,1.04922,
2010-05-10, 00:18:04,VALID,914.653,VALID,0,VALID,95.9941,VALID,0,VALID,21.8062,VALID,26,VALID,1.2668,
2010-05-10, 00:19:04,VALID,914.627,VALID,0,VALID,95.9788,VALID,0,VALID,21.8274,VALID,26,VALID,0.751562,
2010-05-10, 00:20:04,VALID,914.604,VALID,0,VALID,95.9254,VALID,0,VALID,21.7867,VALID,26,VALID,0.944141,
2010-05-10, 00:21:04,VALID,914.599,VALID,0,VALID,95.8873,VALID,0,VALID,21.8079,VALID,20,VALID,1.75742,
2010-05-10, 00:22:04,VALID,914.599,VALID,0,VALID,95.8263,VALID,0,VALID,21.7883,VALID,331,VALID,1.37227,
2010-05-10, 00:23:04,VALID,914.61,VALID,0,VALID,95.8111,VALID,0,VALID,21.7477,VALID,20,VALID,1.33789,
2010-05-10, 00:24:04,VALID,914.592,VALID,0,VALID,95.7806,VALID,0,VALID,21.7688,VALID,29,VALID,1.4543,
2010-05-10, 00:25:04,VALID,914.612,VALID,0,VALID,95.8263,VALID,0,VALID,21.7672,VALID,24,VALID,1.21641,
2010-05-10, 00:26:04,VALID,914.589,VALID,0,VALID,95.8111,VALID,0,VALID,21.7883,VALID,24,VALID,1.28242,
2010-05-10, 00:27:04,VALID,914.606,VALID,0,VALID,95.8416,VALID,0,VALID,21.7867,VALID,11,VALID,0.920703,
2010-05-10, 00:28:04,VALID,914.55,VALID,0,VALID,95.8721,VALID,0,VALID,21.8079,VALID,45,VALID,1.73086,
2010-05-10, 00:29:04,VALID,914.55,VALID,0,VALID,95.8873,VALID,0,VALID,21.8079,VALID,20,VALID,1.1918,
2010-05-10, 00:30:04,VALID,914.542,VALID,0,VALID,95.8492,VALID,0,VALID,21.8274,VALID,12,VALID,1.4582,
2010-05-10, 00:31:04,VALID,914.548,VALID,0,VALID,95.7882,VALID,0,VALID,21.7688,VALID,47,VALID,1.36133,
2010-05-10, 00:32:04,VALID,914.555,VALID,0,VALID,95.8797,VALID,0,VALID,21.7883,VALID,47,VALID,1.11563,
2010-05-10, 00:33:04,VALID,914.527,VALID,0,VALID,95.9254,VALID,0,VALID,21.7883,VALID,46,VALID,1.37188,
2010-05-10, 00:34:04,VALID,914.526,VALID,0,VALID,95.7577,VALID,0,VALID,21.7477,VALID,19,VALID,1.41133,
2010-05-10, 00:35:04,VALID,914.524,VALID,0,VALID,95.7425,VALID,0,VALID,21.751,VALID,1,VALID,1.03359,
2010-05-10, 00:36:04,VALID,914.51,VALID,0,VALID,95.8111,VALID,0,VALID,21.7688,VALID,1,VALID,1.5043,
2010-05-10, 00:37:04,VALID,914.482,VALID,0,VALID,95.7958,VALID,0,VALID,21.7688,VALID,1,VALID,1.19102,
2010-05-10, 00:38:04,VALID,914.491,VALID,0,VALID,95.8416,VALID,0,VALID,21.7688,VALID,1,VALID,1.32891,
2010-05-10, 00:39:04,VALID,914.468,VALID,0,VALID,95.8492,VALID,0,VALID,21.7688,VALID,1,VALID,1.44727,
2010-05-10, 00:40:04,VALID,914.459,VALID,0,VALID,95.9254,VALID,0,VALID,21.7688,VALID,1,VALID,1.13828,
2010-05-10, 00:41:04,VALID,914.426,VALID,0,VALID,95.9559,VALID,0,VALID,21.7688,VALID,1,VALID,0.870703,
2010-05-10, 00:42:04,VALID,914.438,VALID,0,VALID,95.8873,VALID,0,VALID,21.7688,VALID,1,VALID,0.867188,
2010-05-10, 00:43:04,VALID,914.444,VALID,0,VALID,95.895,VALID,0,VALID,21.7477,VALID,1,VALID,1.09258,
2010-05-10, 00:44:04,VALID,914.379,VALID,0,VALID,95.8187,VALID,0,VALID,21.7688,VALID,359,VALID,0.990234,
2010-05-10, 00:45:04,VALID,914.374,VALID,0,VALID,95.773,VALID,0,VALID,21.7688,VALID,29,VALID,0.883203,
2010-05-10, 00:46:04,VALID,914.351,VALID,0,VALID,95.7272,VALID,0,VALID,21.7883,VALID,29,VALID,1.49297,
2010-05-10, 00:47:04,VALID,914.32,VALID,0,VALID,95.7349,VALID,0,VALID,21.7883,VALID,38,VALID,1.9375,
2010-05-10, 00:48:04,VALID,914.349,VALID,0,VALID,95.6662,VALID,0.107441,VALID,21.7688,VALID,23,VALID,1.55,
2010-05-10, 00:49:04,VALID,914.335,VALID,0,VALID,95.6662,VALID,0,VALID,21.7688,VALID,24,VALID,1.0582,
2010-05-10, 00:50:04,VALID,914.337,VALID,0,VALID,95.712,VALID,0,VALID,21.7688,VALID,24,VALID,0.894531,
2010-05-10, 00:51:04,VALID,914.314,VALID,0,VALID,95.7349,VALID,0,VALID,21.7688,VALID,24,VALID,0.937109,
2010-05-10, 00:52:04,VALID,914.314,VALID,0,VALID,95.7272,VALID,0,VALID,21.7688,VALID,24,VALID,0.852344,
2010-05-10, 00:53:04,VALID,914.291,VALID,0,VALID,95.7882,VALID,0,VALID,21.7688,VALID,24,VALID,0.165234,
2010-05-10, 00:54:04,VALID,914.27,VALID,0,VALID,95.773,VALID,0,VALID,21.7493,VALID,24,VALID,0.941016,
2010-05-10, 00:55:04,VALID,914.278,VALID,0,VALID,95.8035,VALID,0,VALID,21.7493,VALID,24,VALID,1.1418,
2010-05-10, 00:56:04,VALID,914.301,VALID,0,VALID,95.8263,VALID,0,VALID,21.7493,VALID,24,VALID,1.10234,
2010-05-10, 00:57:04,VALID,914.287,VALID,0,VALID,95.8645,VALID,0.107441,VALID,21.7493,VALID,24,VALID,0.765234,
2010-05-10, 00:58:04,VALID,914.281,VALID,0,VALID,95.8035,VALID,0,VALID,21.7298,VALID,24,VALID,0.814844,
2010-05-10, 00:59:04,VALID,914.277,VALID,0,VALID,95.6967,VALID,0,VALID,21.7103,VALID,25,VALID,1.43438,
2010-05-10, 01:00:04,VALID,914.284,VALID,0,VALID,95.7349,VALID,0,VALID,21.7315,VALID,25,VALID,0.355859,
2010-05-10, 01:01:04,VALID,914.262,VALID,0,VALID,95.6891,VALID,0,VALID,21.7315,VALID,24,VALID,1.00508,
2010-05-10, 01:02:04,VALID,914.296,VALID,0,VALID,95.7044,VALID,0,VALID,21.751,VALID,25,VALID,0.898047,
2010-05-10, 01:03:04,VALID,914.25,VALID,0,VALID,95.6586,VALID,0,VALID,21.751,VALID,25,VALID,0.544922,
2010-05-10, 01:04:04,VALID,914.242,VALID,0,VALID,95.5062,VALID,0,VALID,21.712,VALID,20,VALID,1.29922,
2010-05-10, 01:05:04,VALID,914.256,VALID,0,VALID,95.4375,VALID,0,VALID,21.7315,VALID,38,VALID,1.45313,
2010-05-10, 01:06:04,VALID,914.22,VALID,0,VALID,95.3689,VALID,0,VALID,21.6908,VALID,26,VALID,0.708984,
2010-05-10, 01:07:04,VALID,914.202,VALID,0,VALID,95.2851,VALID,0,VALID,21.712,VALID,21,VALID,0.98125,
2010-05-10, 01:08:04,VALID,914.207,VALID,0,VALID,95.3079,VALID,0,VALID,21.7315,VALID,20,VALID,0.932422,
2010-05-10, 01:09:04,VALID,914.214,VALID,0,VALID,95.2851,VALID,0,VALID,21.7315,VALID,21,VALID,1.2082,
2010-05-10, 01:10:04,VALID,914.213,VALID,0,VALID,95.3461,VALID,0,VALID,21.7315,VALID,21,VALID,0.649219,
2010-05-10, 01:11:04,VALID,914.195,VALID,0,VALID,95.4757,VALID,0,VALID,21.751,VALID,21,VALID,0.875781,
2010-05-10, 01:12:04,VALID,914.204,VALID,0,VALID,95.5138,VALID,0,VALID,21.7103,VALID,21,VALID,1.00586,
2010-05-10, 01:13:04,VALID,914.199,VALID,0,VALID,95.5748,VALID,0,VALID,21.7315,VALID,21,VALID,1.43633,
2010-05-10, 01:14:04,VALID,914.196,VALID,0,VALID,95.6129,VALID,0,VALID,21.7103,VALID,20,VALID,1.3582,
2010-05-10, 01:15:04,VALID,914.203,VALID,0,VALID,95.6281,VALID,0,VALID,21.7087,VALID,21,VALID,1.15117,
2010-05-10, 01:16:04,VALID,914.175,VALID,0,VALID,95.6586,VALID,0,VALID,21.7103,VALID,1,VALID,1.26641,
2010-05-10, 01:17:04,VALID,914.19,VALID,0,VALID,95.6357,VALID,0,VALID,21.7103,VALID,46,VALID,0.501562,
2010-05-10, 01:18:04,VALID,914.209,VALID,0,VALID,95.5976,VALID,0,VALID,21.6908,VALID,45,VALID,1.31953,
2010-05-10, 01:19:04,VALID,914.194,VALID,0,VALID,95.4985,VALID,0,VALID,21.6908,VALID,45,VALID,0.913672,
2010-05-10, 01:20:04,VALID,914.222,VALID,0,VALID,95.5671,VALID,0,VALID,21.6713,VALID,45,VALID,0.812891,
2010-05-10, 01:21:04,VALID,914.236,VALID,0,VALID,95.6434,VALID,0.107441,VALID,21.6908,VALID,45,VALID,0.132813,
2010-05-10, 01:22:04,VALID,914.196,VALID,0,VALID,95.6586,VALID,0,VALID,21.6696,VALID,45,VALID,0.469141,
2010-05-10, 01:23:04,VALID,914.194,VALID,0,VALID,95.6205,VALID,0,VALID,21.6713,VALID,45,VALID,0.941016,
2010-05-10, 01:24:04,VALID,914.183,VALID,0,VALID,95.5595,VALID,0,VALID,21.6713,VALID,45,VALID,0.185547,
2010-05-10, 01:25:04,VALID,914.189,VALID,0,VALID,95.5214,VALID,0,VALID,21.6501,VALID,45,VALID,0.742578,
2010-05-10, 01:26:04,VALID,914.209,VALID,0,VALID,95.4985,VALID,0,VALID,21.6518,VALID,45,VALID,0.254297,
2010-05-10, 01:27:04,VALID,914.206,VALID,0,VALID,95.4909,VALID,0,VALID,21.6323,VALID,45,VALID,0.782031,
2010-05-10, 01:28:04,VALID,914.172,VALID,0,VALID,95.4757,VALID,0,VALID,21.6128,VALID,45,VALID,0.908594,
2010-05-10, 01:29:04,VALID,914.187,VALID,0,VALID,95.5138,VALID,0,VALID,21.6128,VALID,45,VALID,0.257422,
2010-05-10, 01:30:04,VALID,914.163,VALID,0,VALID,95.5671,VALID,0,VALID,21.6144,VALID,45,VALID,1.13359,
2010-05-10, 01:31:04,VALID,914.135,VALID,0,VALID,95.5519,VALID,0,VALID,21.5754,VALID,45,VALID,0.825391,
2010-05-10, 01:32:04,VALID,914.137,VALID,0,VALID,95.5976,VALID,0,VALID,21.5754,VALID,45,VALID,0.632422,
2010-05-10, 01:33:04,VALID,914.113,VALID,0,VALID,95.6129,VALID,0,VALID,21.5559,VALID,45,VALID,0.569141,
2010-05-10, 01:34:04,VALID,914.106,VALID,0,VALID,95.6281,VALID,0,VALID,21.5559,VALID,313,VALID,0.796484,
2010-05-10, 01:35:04,VALID,914.141,VALID,0,VALID,95.59,VALID,0,VALID,21.5363,VALID,7,VALID,1.09219,
2010-05-10, 01:36:04,VALID,914.123,VALID,0,VALID,95.6205,VALID,0,VALID,21.5363,VALID,13,VALID,0.773047,
2010-05-10, 01:37:04,VALID,914.113,VALID,0,VALID,95.5519,VALID,0,VALID,21.5168,VALID,13,VALID,0.176172,
2010-05-10, 01:38:04,VALID,914.083,VALID,0,VALID,95.5748,VALID,0,VALID,21.5152,VALID,13,VALID,0.442969,
2010-05-10, 01:39:04,VALID,914.068,VALID,0,VALID,95.6281,VALID,0,VALID,21.5363,VALID,13,VALID,1.12812,
2010-05-10, 01:40:04,VALID,914.086,VALID,0,VALID,95.6662,VALID,0,VALID,21.5152,VALID,56,VALID,1.25859,
2010-05-10, 01:41:04,VALID,914.085,VALID,0,VALID,95.5824,VALID,0,VALID,21.5363,VALID,23,VALID,0.383203,
2010-05-10, 01:42:04,VALID,914.061,VALID,0,VALID,95.59,VALID,0,VALID,21.4957,VALID,23,VALID,0.721484,
2010-05-10, 01:43:04,VALID,914.073,VALID,0,VALID,95.6662,VALID,0,VALID,21.5363,VALID,23,VALID,0.517187,
2010-05-10, 01:44:04,VALID,914.104,VALID,0,VALID,95.6053,VALID,0,VALID,21.4973,VALID,23,VALID,0.741016,
2010-05-10, 01:45:04,VALID,914.044,VALID,0,VALID,95.6662,VALID,0,VALID,21.5168,VALID,23,VALID,1.07656,
2010-05-10, 01:46:04,VALID,914.031,VALID,0,VALID,95.6053,VALID,0,VALID,21.5185,VALID,265,VALID,0.690234,
2010-05-10, 01:47:04,VALID,914.053,VALID,0,VALID,95.6357,VALID,0,VALID,21.4973,VALID,265,VALID,0.773828,
2010-05-10, 01:48:04,VALID,914.011,VALID,0,VALID,95.6205,VALID,0,VALID,21.4567,VALID,265,VALID,0.738672,
2010-05-10, 01:49:04,VALID,913.966,VALID,0,VALID,95.6053,VALID,0,VALID,21.4583,VALID,288,VALID,0.547656,
2010-05-10, 01:50:04,VALID,913.97,VALID,0,VALID,95.6205,VALID,0,VALID,21.4177,VALID,41,VALID,0.771484,
2010-05-10, 01:51:04,VALID,913.947,VALID,0,VALID,95.6205,VALID,0,VALID,21.4583,VALID,41,VALID,0.857422,
2010-05-10, 01:52:04,VALID,913.934,VALID,0,VALID,95.6053,VALID,0,VALID,21.4388,VALID,41,VALID,1.21875,
2010-05-10, 01:53:04,VALID,913.943,VALID,0,VALID,95.6662,VALID,0,VALID,21.4388,VALID,41,VALID,0.771484,
2010-05-10, 01:54:04,VALID,913.906,VALID,0,VALID,95.6967,VALID,0,VALID,21.4177,VALID,41,VALID,0.479688,
2010-05-10, 01:55:04,VALID,913.912,VALID,0,VALID,95.7044,VALID,0,VALID,21.4388,VALID,41,VALID,0.921094,
2010-05-10, 01:56:04,VALID,913.88,VALID,0,VALID,95.6967,VALID,0,VALID,21.4388,VALID,40,VALID,1.29258,
2010-05-10, 01:57:04,VALID,913.869,VALID,0,VALID,95.712,VALID,0,VALID,21.4193,VALID,40,VALID,0.81875,
2010-05-10, 01:58:04,VALID,913.857,VALID,0,VALID,95.6967,VALID,0,VALID,21.4193,VALID,40,VALID,0.920313,
2010-05-10, 01:59:04,VALID,913.87,VALID,0,VALID,95.7958,VALID,0,VALID,21.4193,VALID,40,VALID,0.739453,
2010-05-10, 02:00:04,VALID,913.85,VALID,0,VALID,95.8263,VALID,0,VALID,21.4193,VALID,40,VALID,0.708203,
2010-05-10, 02:01:04,VALID,913.817,VALID,0,VALID,95.7882,VALID,0,VALID,21.4193,VALID,40,VALID,0.105078,
2010-05-10, 02:02:04,VALID,913.839,VALID,0,VALID,95.7425,VALID,0,VALID,21.3998,VALID,40,VALID,0.903516,
2010-05-10, 02:03:04,VALID,913.829,VALID,0,VALID,95.7425,VALID,0,VALID,21.4193,VALID,40,VALID,0.720703,
2010-05-10, 02:04:04,VALID,913.802,VALID,0,VALID,95.6281,VALID,0,VALID,21.3998,VALID,40,VALID,0.611719,
2010-05-10, 02:05:04,VALID,913.795,VALID,0,VALID,95.6434,VALID,0,VALID,21.3998,VALID,40,VALID,1.16445,
2010-05-10, 02:06:04,VALID,913.792,VALID,0,VALID,95.6205,VALID,0,VALID,21.3998,VALID,40,VALID,0.866016,
2010-05-10, 02:07:04,VALID,913.789,VALID,0,VALID,95.5976,VALID,0,VALID,21.3803,VALID,40,VALID,0.732813,
2010-05-10, 02:08:04,VALID,913.768,VALID,0,VALID,95.6586,VALID,0,VALID,21.3803,VALID,40,VALID,0.785156,
2010-05-10, 02:09:04,VALID,913.782,VALID,0,VALID,95.6662,VALID,0,VALID,21.3803,VALID,40,VALID,0.376563,
2010-05-10, 02:10:04,VALID,913.772,VALID,0,VALID,95.5824,VALID,0,VALID,21.3412,VALID,40,VALID,0.753516,
2010-05-10, 02:11:04,VALID,913.774,VALID,0,VALID,95.6129,VALID,0,VALID,21.3396,VALID,40,VALID,0.557422,
2010-05-10, 02:12:04,VALID,913.792,VALID,0,VALID,95.7044,VALID,0,VALID,21.3803,VALID,40,VALID,0.569141,
2010-05-10, 02:13:04,VALID,913.795,VALID,0,VALID,95.6815,VALID,0,VALID,21.3608,VALID,40,VALID,0.273047,
2010-05-10, 02:14:04,VALID,913.752,VALID,0,VALID,95.712,VALID,0,VALID,21.3803,VALID,40,VALID,0.353906,
2010-05-10, 02:15:04,VALID,913.748,VALID,0,VALID,95.6739,VALID,0,VALID,21.3396,VALID,40,VALID,0.684375,
2010-05-10, 02:16:04,VALID,913.757,VALID,0,VALID,95.712,VALID,0,VALID,21.3591,VALID,40,VALID,0.569531,
2010-05-10, 02:17:04,VALID,913.715,VALID,0,VALID,95.6434,VALID,0,VALID,21.3591,VALID,40,VALID,0.477734,
2010-05-10, 02:18:04,VALID,913.713,VALID,0,VALID,95.6434,VALID,0,VALID,21.3608,VALID,40,VALID,0.183984,
2010-05-10, 02:19:04,VALID,913.651,VALID,0,VALID,95.651,VALID,0,VALID,21.3608,VALID,40,VALID,0,
2010-05-10, 02:20:04,VALID,913.623,VALID,0,VALID,95.6739,VALID,0,VALID,21.3412,VALID,40,VALID,0,
2010-05-10, 02:21:04,VALID,913.654,VALID,0,VALID,95.6739,VALID,0,VALID,21.3217,VALID,40,VALID,0.478516,
2010-05-10, 02:22:04,VALID,913.626,VALID,0,VALID,95.7501,VALID,0,VALID,21.3217,VALID,40,VALID,0.392188,
2010-05-10, 02:23:04,VALID,913.628,VALID,0,VALID,95.773,VALID,0,VALID,21.3217,VALID,40,VALID,0.185937,
2010-05-10, 02:24:04,VALID,913.587,VALID,0,VALID,95.8263,VALID,0,VALID,21.3022,VALID,40,VALID,0.231641,
2010-05-10, 02:25:04,VALID,913.601,VALID,0,VALID,95.8492,VALID,0,VALID,21.3006,VALID,40,VALID,0.191406,
2010-05-10, 02:26:04,VALID,913.599,VALID,0,VALID,95.9026,VALID,0,VALID,21.2811,VALID,40,VALID,0,
2010-05-10, 02:27:04,VALID,913.595,VALID,0,VALID,95.9178,VALID,0,VALID,21.3022,VALID,40,VALID,0,
2010-05-10, 02:28:04,VALID,913.588,VALID,0,VALID,95.9102,VALID,0,VALID,21.3022,VALID,40,VALID,0.000390625,
2010-05-10, 02:29:04,VALID,913.532,VALID,0,VALID,95.9254,VALID,0,VALID,21.3022,VALID,40,VALID,0.0277344,
2010-05-10, 02:30:04,VALID,913.571,VALID,0,VALID,95.9636,VALID,0,VALID,21.3006,VALID,40,VALID,0.254297,
2010-05-10, 02:31:04,VALID,913.576,VALID,0,VALID,95.9331,VALID,0,VALID,21.3022,VALID,40,VALID,0.00273437,
2010-05-10, 02:32:04,VALID,913.555,VALID,0,VALID,95.8797,VALID,0,VALID,21.2616,VALID,40,VALID,0.0925781,
2010-05-10, 02:33:04,VALID,913.556,VALID,0,VALID,95.9254,VALID,0,VALID,21.2421,VALID,40,VALID,0,
2010-05-10, 02:34:04,VALID,913.553,VALID,0,VALID,96.0017,VALID,0.107441,VALID,21.2616,VALID,40,VALID,0,
2010-05-10, 02:35:04,VALID,913.544,VALID,0,VALID,96.055,VALID,0.107441,VALID,21.2421,VALID,40,VALID,0,
2010-05-10, 02:36:04,VALID,913.541,VALID,0,VALID,96.0627,VALID,0,VALID,21.2421,VALID,40,VALID,0.358203,
2010-05-10, 02:37:04,VALID,913.527,VALID,0,VALID,96.0703,VALID,0,VALID,21.2226,VALID,40,VALID,0.377344,
2010-05-10, 02:38:04,VALID,913.542,VALID,0,VALID,96.1541,VALID,0,VALID,21.2226,VALID,40,VALID,0.255859,
2010-05-10, 02:39:04,VALID,913.548,VALID,0,VALID,96.177,VALID,0.107441,VALID,21.221,VALID,40,VALID,0.187891,
2010-05-10, 02:40:04,VALID,913.556,VALID,0,VALID,96.1846,VALID,0,VALID,21.2226,VALID,40,VALID,0.561719,
2010-05-10, 02:41:04,VALID,913.552,VALID,0,VALID,96.2151,VALID,0.107441,VALID,21.2226,VALID,40,VALID,0.362891,
2010-05-10, 02:42:04,VALID,913.562,VALID,0,VALID,96.2533,VALID,0.107441,VALID,21.2226,VALID,40,VALID,0.407813,
2010-05-10, 02:43:04,VALID,913.563,VALID,0,VALID,96.2761,VALID,0,VALID,21.2226,VALID,40,VALID,0.644141,
2010-05-10, 02:44:04,VALID,913.559,VALID,0,VALID,96.3142,VALID,0.107441,VALID,21.2226,VALID,40,VALID,0.565625,
2010-05-10, 02:45:04,VALID,913.551,VALID,0,VALID,96.3219,VALID,0,VALID,21.2047,VALID,40,VALID,0.791797,
2010-05-10, 02:46:04,VALID,913.58,VALID,0,VALID,96.3447,VALID,0,VALID,21.2242,VALID,39,VALID,0.764844,
2010-05-10, 02:47:04,VALID,913.555,VALID,0,VALID,96.3676,VALID,0,VALID,21.2047,VALID,39,VALID,0.754297,
2010-05-10, 02:48:04,VALID,913.563,VALID,0,VALID,96.3905,VALID,0,VALID,21.2047,VALID,39,VALID,0.761328,
2010-05-10, 02:49:04,VALID,913.557,VALID,0,VALID,96.3676,VALID,0,VALID,21.1836,VALID,39,VALID,0.536719,
2010-05-10, 02:50:04,VALID,913.56,VALID,0,VALID,96.421,VALID,0,VALID,21.2047,VALID,39,VALID,0.596484,
2010-05-10, 02:51:04,VALID,913.556,VALID,0,VALID,96.4057,VALID,0,VALID,21.2242,VALID,39,VALID,0.715625,
2010-05-10, 02:52:04,VALID,913.546,VALID,0,VALID,96.3905,VALID,0,VALID,21.2047,VALID,39,VALID,0.673437,
2010-05-10, 02:53:04,VALID,913.536,VALID,0,VALID,96.3905,VALID,0,VALID,21.2047,VALID,39,VALID,0.614453,
2010-05-10, 02:54:04,VALID,913.513,VALID,0,VALID,96.3829,VALID,0,VALID,21.2258,VALID,39,VALID,0.659375,
2010-05-10, 02:55:04,VALID,913.501,VALID,0,VALID,96.3676,VALID,0,VALID,21.2047,VALID,39,VALID,0.713281,
2010-05-10, 02:56:04,VALID,913.478,VALID,0,VALID,96.3447,VALID,0,VALID,21.2047,VALID,39,VALID,0.813672,
2010-05-10, 02:57:04,VALID,913.447,VALID,0,VALID,96.3447,VALID,0,VALID,21.2242,VALID,39,VALID,0.790625,
2010-05-10, 02:58:04,VALID,913.45,VALID,0,VALID,96.3219,VALID,0,VALID,21.1852,VALID,39,VALID,0.465234,
2010-05-10, 02:59:04,VALID,913.417,VALID,0,VALID,96.2914,VALID,0,VALID,21.2242,VALID,39,VALID,0.445313,
2010-05-10, 03:00:04,VALID,913.41,VALID,0,VALID,96.2456,VALID,0,VALID,21.1836,VALID,39,VALID,0.608984,
2010-05-10, 03:01:04,VALID,913.405,VALID,0,VALID,96.2304,VALID,0,VALID,21.1836,VALID,39,VALID,0.469141,
2010-05-10, 03:02:04,VALID,913.408,VALID,0,VALID,96.238,VALID,0,VALID,21.1836,VALID,39,VALID,0.513281,
2010-05-10, 03:03:04,VALID,913.425,VALID,0,VALID,96.238,VALID,0.107441,VALID,21.1836,VALID,39,VALID,0.217578,
2010-05-10, 03:04:04,VALID,913.418,VALID,0,VALID,96.2761,VALID,0.107441,VALID,21.164,VALID,39,VALID,0.0277344,
2010-05-10, 03:05:04,VALID,913.428,VALID,0,VALID,96.2609,VALID,0,VALID,21.164,VALID,39,VALID,0.319922,
2010-05-10, 03:06:04,VALID,913.433,VALID,0,VALID,96.2456,VALID,0,VALID,21.1657,VALID,39,VALID,0.182422,
2010-05-10, 03:07:04,VALID,913.454,VALID,0,VALID,96.238,VALID,0.107441,VALID,21.1445,VALID,39,VALID,0.188281,
2010-05-10, 03:08:04,VALID,913.449,VALID,0,VALID,96.2914,VALID,0,VALID,21.1445,VALID,39,VALID,0.427344,
2010-05-10, 03:09:04,VALID,913.475,VALID,0,VALID,96.3371,VALID,0,VALID,21.125,VALID,39,VALID,0.476953,
2010-05-10, 03:10:04,VALID,913.493,VALID,0,VALID,96.3752,VALID,0,VALID,21.1055,VALID,39,VALID,0.210547,
2010-05-10, 03:11:04,VALID,913.479,VALID,0,VALID,96.4591,VALID,0,VALID,21.125,VALID,39,VALID,0.43125,
2010-05-10, 03:12:04,VALID,913.491,VALID,0,VALID,96.4515,VALID,0,VALID,21.125,VALID,39,VALID,0.591016,
2010-05-10, 03:13:04,VALID,913.503,VALID,0,VALID,96.4972,VALID,0,VALID,21.125,VALID,39,VALID,0.365234,
2010-05-10, 03:14:04,VALID,913.455,VALID,0,VALID,96.4896,VALID,0.107441,VALID,21.125,VALID,39,VALID,0.804297,
2010-05-10, 03:15:04,VALID,913.486,VALID,0,VALID,96.5353,VALID,0,VALID,21.125,VALID,39,VALID,0.194141,
2010-05-10, 03:16:04,VALID,913.469,VALID,0,VALID,96.5506,VALID,0,VALID,21.125,VALID,39,VALID,0,
2010-05-10, 03:17:04,VALID,913.458,VALID,0,VALID,96.5353,VALID,0.107441,VALID,21.125,VALID,39,VALID,0.378516,
2010-05-10, 03:18:04,VALID,913.461,VALID,0,VALID,96.5353,VALID,0,VALID,21.1055,VALID,39,VALID,0.272266,
2010-05-10, 03:19:04,VALID,913.488,VALID,0,VALID,96.5734,VALID,0,VALID,21.125,VALID,39,VALID,0.459375,
2010-05-10, 03:20:04,VALID,913.465,VALID,0,VALID,96.6115,VALID,0.107441,VALID,21.1461,VALID,39,VALID,0.415625,
2010-05-10, 03:21:04,VALID,913.485,VALID,0,VALID,96.6268,VALID,0,VALID,21.164,VALID,39,VALID,0,
2010-05-10, 03:22:04,VALID,913.445,VALID,0,VALID,96.6344,VALID,0,VALID,21.164,VALID,39,VALID,0.139453,
2010-05-10, 03:23:04,VALID,913.467,VALID,0,VALID,96.6344,VALID,0,VALID,21.164,VALID,39,VALID,0.162891,
2010-05-10, 03:24:04,VALID,913.464,VALID,0,VALID,96.6954,VALID,0,VALID,21.1836,VALID,39,VALID,0.353906,
2010-05-10, 03:25:04,VALID,913.461,VALID,0,VALID,96.6649,VALID,0.107441,VALID,21.2031,VALID,39,VALID,0.0929687,
2010-05-10, 03:26:04,VALID,913.459,VALID,0,VALID,96.6954,VALID,0.107441,VALID,21.2242,VALID,39,VALID,0.163672,
2010-05-10, 03:27:04,VALID,913.448,VALID,0,VALID,96.6649,VALID,0,VALID,21.2226,VALID,39,VALID,0.0367187,
2010-05-10, 03:28:04,VALID,913.469,VALID,0,VALID,96.6344,VALID,0,VALID,21.2226,VALID,39,VALID,0,
2010-05-10, 03:29:04,VALID,913.465,VALID,0,VALID,96.6268,VALID,0,VALID,21.2031,VALID,39,VALID,0.114063,
2010-05-10, 03:30:04,VALID,913.446,VALID,0,VALID,96.642,VALID,0,VALID,21.2226,VALID,39,VALID,0,
2010-05-10, 03:31:04,VALID,913.431,VALID,0,VALID,96.6344,VALID,0,VALID,21.2226,VALID,39,VALID,0.357812,
2010-05-10, 03:32:04,VALID,913.418,VALID,0,VALID,96.6497,VALID,0,VALID,21.2421,VALID,39,VALID,0.535547,
2010-05-10, 03:33:04,VALID,913.419,VALID,0,VALID,96.6268,VALID,0,VALID,21.2421,VALID,39,VALID,0.551562,
2010-05-10, 03:34:04,VALID,913.399,VALID,0,VALID,96.642,VALID,0,VALID,21.2421,VALID,39,VALID,0.875781,
2010-05-10, 03:35:04,VALID,913.389,VALID,0,VALID,96.6115,VALID,0,VALID,21.2421,VALID,39,VALID,0.345313,
2010-05-10, 03:36:04,VALID,913.363,VALID,0,VALID,96.5811,VALID,0,VALID,21.2616,VALID,39,VALID,0.762109,
2010-05-10, 03:37:04,VALID,913.377,VALID,0,VALID,96.5887,VALID,0,VALID,21.2421,VALID,39,VALID,0.251563,
2010-05-10, 03:38:04,VALID,913.368,VALID,0,VALID,96.5582,VALID,0,VALID,21.2421,VALID,39,VALID,0.207813,
2010-05-10, 03:39:04,VALID,913.375,VALID,0,VALID,96.5277,VALID,0,VALID,21.2421,VALID,39,VALID,0.459375,
2010-05-10, 03:40:04,VALID,913.378,VALID,0,VALID,96.4896,VALID,0,VALID,21.2421,VALID,39,VALID,0.718359,
2010-05-10, 03:41:04,VALID,913.395,VALID,0,VALID,96.4743,VALID,0.107441,VALID,21.2421,VALID,39,VALID,0.866016,
2010-05-10, 03:42:04,VALID,913.417,VALID,0,VALID,96.4057,VALID,0.107441,VALID,21.2226,VALID,39,VALID,0.931641,
2010-05-10, 03:43:04,VALID,913.369,VALID,0,VALID,96.36,VALID,0,VALID,21.2031,VALID,39,VALID,1.0125,
2010-05-10, 03:44:04,VALID,913.362,VALID,0,VALID,96.3752,VALID,0,VALID,21.2226,VALID,39,VALID,0.734375,
2010-05-10, 03:45:04,VALID,913.392,VALID,0,VALID,96.3524,VALID,0.107441,VALID,21.2031,VALID,39,VALID,1.10586,
2010-05-10, 03:46:04,VALID,913.381,VALID,0,VALID,96.3371,VALID,0,VALID,21.2226,VALID,39,VALID,1.28984,